Home   Weather   Stolberg (Rheinland)   Past weeks

Flag for Germany Past Weather in Stolberg (Rheinland), North Rhine-Westphalia, Germany — Yesterday and Last 2 Weeks

Now
73 °F

Partly sunny.


Feels Like: 77 °F
Forecast: 43 / 70 °F
Wind: 18 mph from West

Location: Geilenkirchen Airport

Current Time: May 23, 2017 at 2:45:44 pm

Latest Report: May 23, 2017 at 1:50 pm


Visibility: N/A

Pressure: 30.09 "Hg

Humidity: 50%

Dew Point: 54 °F

Location of Stolberg (Rheinland)Location

Past Weather in Stolberg (Rheinland) — Graph

°F

Stolberg (Rheinland) Temperature Yesterday

Maximum temperature yesterday: 77 °F (at 4:50 pm)
Minimum temperature yesterday: 45 °F (at 3:50 am)
Average temperature yesterday: 63 °F

High & Low Weather Summary for the Past Weeks

 TemperatureHumidityPressure
High88 °F (May 17, 4:50 pm)94% (May 8, 4:50 pm)30.42 "Hg (May 8, 4:50 pm)
Low32 °F (May 10, 5:50 am)29% (May 17, 3:50 pm)29.42 "Hg (May 11, 5:50 pm)
Average61 °F67%29.97 "Hg
* Reported May 8 12:50 pm — May 23 12:50 pm, Stolberg (Rheinland). Weather by CustomWeather, © 2017

Note: Actual official high and low records may vary slightly from our data, if they occured in-between our weather recording intervals... More about our weather records

Advertising

Stolberg (Rheinland) Weather History for the Previous 24 Hours

Scroll right to see more
 ConditionsComfort  
Time TempWeatherWind HumidityBarometerVisibility
12:50 pm
Tue, May 23
73 °FPartly sunny.16 mph50%30.09 "HgN/A
11:50 am70 °FSunny.13 mph57%30.07 "Hg10 mi
10:50 am70 °FSunny.12 mph60%30.07 "Hg10 mi
9:50 am68 °FSunny.12 mph64%30.07 "Hg10 mi
8:50 am66 °FSunny.9 mph60%30.04 "Hg10 mi
7:50 am66 °FSunny.2 mph56%30.01 "Hg10 mi
6:50 am64 °FSunny.3 mph60%30.01 "Hg10 mi
5:50 am61 °FSunny.1 mph68%30.01 "Hg10 mi
4:50 am63 °FClear.2 mph64%30.01 "Hg10 mi
3:50 am64 °FClear.2 mph60%30.01 "Hg10 mi
2:50 am64 °FClear.6 mph64%29.98 "Hg10 mi
1:50 am66 °FClear.7 mph60%29.98 "Hg10 mi
12:50 am61 °FClear.1 mph72%30.01 "Hg10 mi
11:50 pm
Mon, May 22
61 °FClear.1 mph72%30.01 "Hg10 mi
10:50 pm66 °FClear.2 mph56%30.01 "Hg10 mi
9:50 pm64 °FClear.7 mph60%30.01 "Hg10 mi
8:50 pm68 °FSunny.7 mph56%30.01 "Hg10 mi
7:50 pm72 °FSunny.7 mph50%30.01 "Hg10 mi
6:50 pm73 °FSunny.12 mph44%30.01 "Hg10 mi
5:50 pm75 °FSunny.12 mph44%30.01 "Hg10 mi
4:50 pm77 °FSunny.14 mph39%30.04 "Hg10 mi
3:50 pm75 °FSunny.13 mph41%30.04 "Hg10 mi
2:50 pm75 °FSunny.12 mph41%30.07 "Hg10 mi
Weather by CustomWeather, © 2017

See weather overviewHow to use our weather pages